| time (UTC) | temp F | wind direction | speed MPH | gust MPH | rain 1hr in | rain 24hr in | rain mn in | humidity % | barometer mb |
| 20260504035003 | 46 | 218 | 0.0 | 3.0 | 0.00 | 0.00 | 0.00 | 86 | 1007.8 |
| 20260504034503 | 46 | 296 | 0.0 | 2.0 | 0.00 | 0.00 | 0.00 | 85 | 1007.6 |
| 20260504034003 | 46 | 286 | 0.0 | 2.0 | 0.00 | 0.00 | 0.00 | 85 | 1007.9 |
| 20260504033503 | 46 | 225 | 0.0 | 2.0 | 0.00 | 0.00 | 0.00 | 84 | 1007.8 |
| 20260504033003 | 46 | 171 | 0.0 | 2.0 | 0.00 | 0.00 | 0.00 | 84 | 1007.7 |
| 20260504032503 | 46 | 157 | 0.0 | 2.0 | 0.00 | 0.00 | 0.00 | 84 | 1007.7 |
| 20260504032003 | 46 | 146 | 0.0 | 2.0 | 0.00 | 0.00 | 0.00 | 83 | 1007.8 |
| 20260504031503 | 46 | 147 | 1.0 | 3.0 | 0.00 | 0.00 | 0.00 | 82 | 1007.6 |
| 20260504031003 | 46 | 8 | 0.0 | 3.0 | 0.00 | 0.00 | 0.00 | 82 | 1008.2 |
| 20260504030505 | 46 | 200 | 0.0 | 3.0 | 0.00 | 0.00 | 0.00 | 81 | 1008.0 |
| 20260504030005 | 46 | 200 | 1.0 | 3.0 | 0.00 | 0.00 | 0.00 | 81 | 1008.0 |
| 20260504025505 | 46 | 207 | 1.0 | 3.0 | 0.00 | 0.00 | 0.00 | 79 | 1008.0 |
| 20260504025005 | 46 | 187 | 1.0 | 6.0 | 0.00 | 0.00 | 0.00 | 79 | 1008.2 |
| 20260504024505 | 46 | 187 | 1.0 | 6.0 | 0.00 | 0.00 | 0.00 | 78 | 1007.9 |
| 20260504024005 | 46 | 201 | 1.0 | 3.0 | 0.00 | 0.00 | 0.00 | 77 | 1008.0 |
| 20260504023505 | 46 | 205 | 1.0 | 6.0 | 0.00 | 0.00 | 0.00 | 75 | 1008.0 |
| 20260504023005 | 46 | 213 | 1.0 | 6.0 | 0.00 | 0.00 | 0.00 | 75 | 1007.9 |
| 20260504022505 | 46 | 203 | 1.0 | 4.0 | 0.00 | 0.00 | 0.00 | 73 | 1007.9 |
| 20260504022005 | 46 | 190 | 1.0 | 7.0 | 0.00 | 0.00 | 0.00 | 74 | 1008.3 |
| 20260504021505 | 46 | 188 | 1.0 | 7.0 | 0.00 | 0.00 | 0.00 | 75 | 1007.9 |
| 20260504021005 | 46 | 211 | 1.0 | 3.0 | 0.00 | 0.00 | 0.00 | 76 | 1008.2 |
| 20260504020505 | 46 | 202 | 1.0 | 3.0 | 0.00 | 0.00 | 0.00 | 75 | 1008.2 |
| 20260504020005 | 46 | 203 | 1.0 | 7.0 | 0.00 | 0.00 | 0.00 | 76 | 1008.2 |
| 20260504015505 | 46 | 191 | 1.0 | 7.0 | 0.00 | 0.00 | 0.00 | 79 | 1008.2 |
| 20260504015005 | 45 | 154 | 0.0 | 2.0 | 0.00 | 0.00 | 0.00 | 80 | 1008.2 |
| 20260504014505 | 45 | 261 | 0.0 | 1.0 | 0.00 | 0.00 | 0.00 | 80 | 1008.4 |
| 20260504014005 | 45 | 254 | 0.0 | 1.0 | 0.00 | 0.00 | 0.00 | 79 | 1008.2 |
| 20260504013505 | 45 | 231 | 0.0 | 1.0 | 0.00 | 0.00 | 0.00 | 80 | 1008.0 |
| 20260504013005 | 44 | 187 | 0.0 | 1.0 | 0.00 | 0.00 | 0.00 | 80 | 1008.0 |
| 20260504012505 | 44 | 191 | 0.0 | 1.0 | 0.00 | 0.00 | 0.00 | 80 | 1008.3 |
| 20260504012005 | 45 | 187 | 0.0 | 1.0 | 0.00 | 0.00 | 0.00 | 79 | 1008.0 |
| 20260504011505 | 45 | 163 | 0.0 | 2.0 | 0.00 | 0.00 | 0.00 | 77 | 1008.3 |
| 20260504011005 | 45 | 159 | 0.0 | 2.0 | 0.00 | 0.00 | 0.00 | 78 | 1008.2 |
| 20260504010505 | 45 | 154 | 0.0 | 1.0 | 0.00 | 0.00 | 0.00 | 75 | 1008.0 |
| 20260504010005 | 45 | 0 | 0.0 | 0.0 | 0.00 | 0.00 | 0.00 | 76 | 1007.9 |
| 20260504005505 | 45 | 0 | 0.0 | 0.0 | 0.00 | 0.00 | 0.00 | 76 | 1008.2 |
| 20260504005005 | 45 | 180 | 0.0 | 1.0 | 0.00 | 0.00 | 0.00 | 75 | 1008.3 |
| 20260504004505 | 45 | 162 | 0.0 | 2.0 | 0.00 | 0.00 | 0.00 | 74 | 1008.0 |
| 20260504004005 | 45 | 156 | 0.0 | 2.0 | 0.00 | 0.00 | 0.00 | 74 | 1008.0 |
| 20260504003505 | 45 | 164 | 0.0 | 2.0 | 0.00 | 0.00 | 0.00 | 74 | 1008.2 |
| 20260504003005 | 45 | 177 | 0.0 | 1.0 | 0.00 | 0.00 | 0.00 | 73 | 1008.3 |
| 20260504002505 | 46 | 192 | 0.0 | 1.0 | 0.00 | 0.00 | 0.00 | 70 | 1008.5 |
| 20260504002005 | 46 | 216 | 0.0 | 1.0 | 0.00 | 0.00 | 0.00 | 66 | 1008.2 |
| 20260504001505 | 46 | 263 | 0.0 | 1.0 | 0.00 | 0.00 | 0.00 | 62 | 1008.3 |
| 20260504001005 | 47 | 237 | 0.0 | 1.0 | 0.00 | 0.00 | 0.00 | 61 | 1008.2 |
| 20260504000505 | 47 | 216 | 0.0 | 3.0 | 0.00 | 0.00 | 0.00 | 60 | 1008.3 |
| 20260504000005 | 47 | 193 | 1.0 | 3.0 | 0.00 | 0.00 | 0.00 | 56 | 1008.0 |
| 20260503235505 | 47 | 168 | 1.0 | 3.0 | 0.00 | 0.00 | 0.00 | 54 | 1008.2 |
| 20260503235005 | 47 | 180 | 1.0 | 4.0 | 0.00 | 0.00 | 0.00 | 55 | 1008.2 |
| 20260503234505 | 47 | 178 | 1.0 | 4.0 | 0.00 | 0.00 | 0.00 | 54 | 1008.2 |
| 20260503234005 | 47 | 218 | 1.0 | 6.0 | 0.00 | 0.00 | 0.00 | 54 | 1008.0 |
| 20260503233505 | 48 | 224 | 1.0 | 6.0 | 0.00 | 0.00 | 0.00 | 53 | 1007.9 |
| 20260503233005 | 48 | 198 | 1.0 | 4.0 | 0.00 | 0.00 | 0.00 | 54 | 1008.2 |
| 20260503232505 | 48 | 183 | 1.0 | 6.0 | 0.00 | 0.00 | 0.00 | 54 | 1008.2 |
| 20260503232005 | 48 | 157 | 1.0 | 6.0 | 0.00 | 0.00 | 0.00 | 54 | 1008.2 |
| 20260503231505 | 48 | 179 | 1.0 | 3.0 | 0.00 | 0.00 | 0.00 | 52 | 1008.0 |
| 20260503231005 | 49 | 181 | 1.0 | 6.0 | 0.00 | 0.00 | 0.00 | 52 | 1008.0 |
| 20260503230505 | 49 | 179 | 1.0 | 6.0 | 0.00 | 0.00 | 0.00 | 51 | 1008.2 |
| 20260503230005 | 49 | 211 | 1.0 | 6.0 | 0.00 | 0.00 | 0.00 | 50 | 1008.0 |
| 20260503225505 | 49 | 198 | 1.0 | 7.0 | 0.00 | 0.00 | 0.00 | 49 | 1008.0 |
| 20260503225005 | 49 | 206 | 2.0 | 10.0 | 0.00 | 0.00 | 0.00 | 50 | 1008.4 |
| 20260503224505 | 49 | 194 | 2.0 | 10.0 | 0.00 | 0.00 | 0.00 | 50 | 1008.2 |
| 20260503224005 | 49 | 168 | 2.0 | 6.0 | 0.00 | 0.00 | 0.00 | 52 | 1008.0 |
| 20260503223505 | 49 | 166 | 1.0 | 6.0 | 0.00 | 0.00 | 0.00 | 51 | 1008.2 |
| 20260503223006 | 50 | 158 | 1.0 | 3.0 | 0.00 | 0.00 | 0.00 | 50 | 1007.9 |
| 20260503222505 | 50 | 160 | 1.0 | 4.0 | 0.00 | 0.00 | 0.00 | 51 | 1008.3 |
| 20260503222005 | 51 | 162 | 1.0 | 4.0 | 0.00 | 0.00 | 0.00 | 49 | 1008.0 |
| 20260503221505 | 53 | 159 | 2.0 | 6.0 | 0.00 | 0.00 | 0.00 | 44 | 1007.9 |
| 20260503221005 | 54 | 168 | 2.0 | 6.0 | 0.00 | 0.00 | 0.00 | 43 | 1007.9 |
| 20260503220505 | 53 | 177 | 2.0 | 6.0 | 0.00 | 0.00 | 0.00 | 42 | 1007.9 |
| 20260503220005 | 53 | 185 | 2.0 | 7.0 | 0.00 | 0.00 | 0.00 | 41 | 1008.3 |
| 20260503215505 | 53 | 180 | 1.0 | 7.0 | 0.00 | 0.00 | 0.00 | 46 | 1008.2 |
| 20260503215005 | 53 | 171 | 2.0 | 6.0 | 0.00 | 0.00 | 0.00 | 47 | 1007.9 |
| 20260503214505 | 53 | 171 | 2.0 | 7.0 | 0.00 | 0.00 | 0.00 | 44 | 1007.9 |
| 20260503214005 | 53 | 181 | 2.0 | 7.0 | 0.00 | 0.00 | 0.00 | 43 | 1008.3 |
| 20260503213505 | 53 | 170 | 2.0 | 7.0 | 0.00 | 0.00 | 0.00 | 46 | 1008.0 |
| 20260503213005 | 53 | 157 | 2.0 | 7.0 | 0.00 | 0.00 | 0.00 | 48 | 1008.2 |
| 20260503212505 | 51 | 168 | 1.0 | 7.0 | 0.00 | 0.00 | 0.00 | 49 | 1008.0 |
| 20260503212005 | 51 | 155 | 1.0 | 7.0 | 0.00 | 0.00 | 0.00 | 52 | 1008.2 |
| 20260503211505 | 52 | 165 | 2.0 | 8.0 | 0.00 | 0.00 | 0.00 | 53 | 1008.3 |
| 20260503211005 | 52 | 203 | 2.0 | 8.0 | 0.00 | 0.00 | 0.00 | 55 | 1008.0 |
| 20260503210505 | 51 | 194 | 2.0 | 7.0 | 0.00 | 0.00 | 0.00 | 56 | 1008.0 |
| 20260503210005 | 52 | 194 | 2.0 | 7.0 | 0.00 | 0.00 | 0.00 | 55 | 1008.4 |
| 20260503205505 | 52 | 165 | 2.0 | 6.0 | 0.00 | 0.00 | 0.00 | 54 | 1008.4 |
| 20260503205005 | 52 | 158 | 2.0 | 4.0 | 0.00 | 0.00 | 0.00 | 55 | 1008.5 |
| 20260503204505 | 52 | 139 | 2.0 | 4.0 | 0.00 | 0.00 | 0.00 | 53 | 1008.6 |
| 20260503204005 | 52 | 162 | 2.0 | 9.0 | 0.00 | 0.00 | 0.00 | 54 | 1008.4 |
| 20260503203505 | 51 | 165 | 2.0 | 9.0 | 0.00 | 0.00 | 0.00 | 58 | 1008.7 |
| 20260503203005 | 52 | 165 | 2.0 | 8.0 | 0.00 | 0.00 | 0.00 | 54 | 1008.9 |
| 20260503202505 | 52 | 177 | 2.0 | 8.0 | 0.00 | 0.00 | 0.00 | 56 | 1009.0 |
| 20260503202005 | 52 | 181 | 3.0 | 8.0 | 0.00 | 0.00 | 0.00 | 55 | 1008.9 |
| 20260503201505 | 52 | 164 | 3.0 | 11.0 | 0.00 | 0.00 | 0.00 | 53 | 1008.7 |
| 20260503201005 | 52 | 156 | 2.0 | 11.0 | 0.00 | 0.00 | 0.00 | 54 | 1008.8 |
| 20260503200505 | 51 | 172 | 2.0 | 7.0 | 0.00 | 0.00 | 0.00 | 55 | 1009.0 |
| 20260503200004 | 53 | 177 | 2.0 | 7.0 | 0.00 | 0.00 | 0.00 | 51 | 1008.8 |
| 20260503195504 | 53 | 184 | 2.0 | 7.0 | 0.00 | 0.00 | 0.00 | 49 | 1009.0 |
| 20260503195005 | 52 | 173 | 2.0 | 7.0 | 0.00 | 0.00 | 0.00 | 49 | 1009.1 |
| 20260503194505 | 52 | 183 | 2.0 | 7.0 | 0.00 | 0.00 | 0.00 | 49 | 1009.2 |
| 20260503194005 | 52 | 183 | 2.0 | 7.0 | 0.00 | 0.00 | 0.00 | 47 | 1009.4 |
| 20260503193505 | 52 | 167 | 2.0 | 7.0 | 0.00 | 0.00 | 0.00 | 47 | 1009.4 |
| 20260503193005 | 52 | 169 | 3.0 | 8.0 | 0.00 | 0.00 | 0.00 | 46 | 1009.4 |
| 20260503192505 | 52 | 164 | 3.0 | 9.0 | 0.00 | 0.00 | 0.00 | 45 | 1009.4 |
| 20260503192004 | 52 | 173 | 3.0 | 9.0 | 0.00 | 0.00 | 0.00 | 45 | 1009.5 |
| 20260503191504 | 52 | 187 | 2.0 | 9.0 | 0.00 | 0.00 | 0.00 | 46 | 1009.6 |
| 20260503191005 | 53 | 160 | 2.0 | 10.0 | 0.00 | 0.00 | 0.00 | 44 | 1009.6 |
| 20260503190504 | 52 | 166 | 2.0 | 10.0 | 0.00 | 0.00 | 0.00 | 44 | 1009.7 |
| 20260503190005 | 52 | 158 | 3.0 | 11.0 | 0.00 | 0.00 | 0.00 | 45 | 1009.9 |
| 20260503185504 | 52 | 164 | 3.0 | 11.0 | 0.00 | 0.00 | 0.00 | 44 | 1009.9 |
| 20260503185004 | 52 | 176 | 3.0 | 9.0 | 0.00 | 0.00 | 0.00 | 43 | 1010.1 |
| 20260503184504 | 52 | 175 | 3.0 | 9.0 | 0.00 | 0.00 | 0.00 | 42 | 1010.0 |
| 20260503184005 | 52 | 163 | 3.0 | 9.0 | 0.00 | 0.00 | 0.00 | 42 | 1010.1 |
| 20260503183505 | 52 | 156 | 3.0 | 10.0 | 0.00 | 0.00 | 0.00 | 43 | 1010.0 |
| 20260503183005 | 52 | 168 | 3.0 | 10.0 | 0.00 | 0.00 | 0.00 | 44 | 1010.1 |
| 20260503182505 | 52 | 193 | 2.0 | 8.0 | 0.00 | 0.00 | 0.00 | 41 | 1010.3 |
| 20260503182006 | 52 | 202 | 2.0 | 8.0 | 0.00 | 0.00 | 0.00 | 43 | 1010.2 |
| 20260503181505 | 52 | 180 | 3.0 | 7.0 | 0.00 | 0.00 | 0.00 | 42 | 1010.1 |
| 20260503181005 | 51 | 156 | 3.0 | 13.0 | 0.00 | 0.00 | 0.00 | 44 | 1010.4 |
| 20260503180504 | 52 | 161 | 3.0 | 13.0 | 0.00 | 0.00 | 0.00 | 43 | 1010.4 |
| 20260503180005 | 53 | 180 | 2.0 | 10.0 | 0.00 | 0.00 | 0.00 | 41 | 1010.4 |
| 20260503175504 | 53 | 175 | 2.0 | 6.0 | 0.00 | 0.00 | 0.00 | 42 | 1010.5 |
| 20260503175004 | 54 | 174 | 2.0 | 6.0 | 0.00 | 0.00 | 0.00 | 37 | 1010.3 |
| 20260503174504 | 54 | 197 | 2.0 | 6.0 | 0.00 | 0.00 | 0.00 | 40 | 1010.4 |
| 20260503174004 | 54 | 194 | 2.0 | 6.0 | 0.00 | 0.00 | 0.00 | 43 | 1010.5 |
| 20260503173505 | 53 | 199 | 2.0 | 9.0 | 0.00 | 0.00 | 0.00 | 44 | 1010.5 |
| 20260503173004 | 53 | 192 | 2.0 | 9.0 | 0.00 | 0.00 | 0.00 | 41 | 1010.4 |
| 20260503172504 | 54 | 165 | 2.0 | 9.0 | 0.00 | 0.00 | 0.00 | 40 | 1010.3 |
| 20260503172004 | 53 | 152 | 2.0 | 9.0 | 0.00 | 0.00 | 0.00 | 42 | 1010.7 |
| 20260503171504 | 53 | 152 | 3.0 | 9.0 | 0.00 | 0.00 | 0.00 | 42 | 1010.5 |
| 20260503171005 | 53 | 172 | 2.0 | 8.0 | 0.00 | 0.00 | 0.00 | 41 | 1010.7 |
| 20260503170505 | 52 | 209 | 2.0 | 8.0 | 0.00 | 0.00 | 0.00 | 43 | 1010.8 |
| 20260503151005 | 53 | 263 | 2.0 | 6.0 | 0.00 | 0.00 | 0.00 | 39 | 1011.9 |
| 20260503150505 | 53 | 270 | 2.0 | 4.0 | 0.00 | 0.00 | 0.00 | 37 | 1011.8 |
| 20260503131004 | 44 | 298 | 2.0 | 4.0 | 0.00 | 0.00 | 0.00 | 51 | 1012.5 |
| 20260503130504 | 44 | 301 | 2.0 | 4.0 | 0.00 | 0.00 | 0.00 | 53 | 1012.6 |
| 20260503110504 | 39 | 276 | 1.0 | 2.0 | 0.00 | 0.00 | 0.00 | 70 | 1012.1 |
| 20260503090504 | 39 | 239 | 0.0 | 1.0 | 0.00 | 0.00 | 0.00 | 72 | 1012.1 |
| 20260503081504 | 38 | 240 | 0.0 | 1.0 | 0.00 | 0.00 | 0.00 | 73 | 1012.3 |
| 20260503081004 | 38 | 0 | 0.0 | 0.0 | 0.00 | 0.00 | 0.00 | 72 | 1012.2 |
| 20260503080504 | 39 | 0 | 0.0 | 0.0 | 0.00 | 0.00 | 0.00 | 72 | 1012.0 |
| 20260503072504 | 39 | 237 | 0.0 | 1.0 | 0.00 | 0.00 | 0.00 | 72 | 1012.3 |
| 20260503072004 | 39 | 237 | 0.0 | 1.0 | 0.00 | 0.00 | 0.00 | 71 | 1012.2 |
| 20260503071504 | 39 | 237 | 0.0 | 1.0 | 0.00 | 0.00 | 0.00 | 71 | 1012.3 |
| 20260503071004 | 39 | 237 | 0.0 | 1.0 | 0.00 | 0.00 | 0.00 | 71 | 1012.3 |
| 20260503070504 | 39 | 236 | 0.0 | 2.0 | 0.00 | 0.00 | 0.00 | 72 | 1012.2 |
| 20260503055004 | 40 | 197 | 0.0 | 1.0 | 0.00 | 0.00 | 0.00 | 75 | 1012.3 |
| 20260503054504 | 39 | 194 | 0.0 | 1.0 | 0.00 | 0.00 | 0.00 | 76 | 1012.5 |
| 20260503054004 | 39 | 194 | 0.0 | 1.0 | 0.00 | 0.00 | 0.00 | 76 | 1012.4 |
| 20260503053504 | 40 | 0 | 0.0 | 0.0 | 0.00 | 0.00 | 0.00 | 77 | 1012.5 |
| 20260503053004 | 40 | 0 | 0.0 | 0.0 | 0.00 | 0.00 | 0.00 | 76 | 1012.6 |
| 20260503052504 | 40 | 0 | 0.0 | 0.0 | 0.00 | 0.00 | 0.00 | 76 | 1012.6 |
| 20260503052004 | 40 | 0 | 0.0 | 0.0 | 0.00 | 0.00 | 0.00 | 77 | 1012.6 |
| 20260503051504 | 40 | 194 | 0.0 | 1.0 | 0.00 | 0.00 | 0.00 | 77 | 1012.7 |
| 20260503051004 | 40 | 194 | 0.0 | 1.0 | 0.00 | 0.00 | 0.00 | 78 | 1012.6 |
| 20260503050504 | 40 | 0 | 0.0 | 0.0 | 0.00 | 0.00 | 0.00 | 78 | 1012.7 |
| 20260503050005 | 40 | 0 | 0.0 | 0.0 | 0.00 | 0.00 | 0.00 | 79 | 1012.6 |
| 20260503045504 | 40 | 0 | 0.0 | 0.0 | 0.00 | 0.00 | 0.00 | 79 | 1012.7 |
| 20260503045004 | 40 | 0 | 0.0 | 0.0 | 0.00 | 0.00 | 0.00 | 80 | 1012.8 |
| 20260503044504 | 40 | 0 | 0.0 | 0.0 | 0.00 | 0.00 | 0.00 | 80 | 1012.8 |
| 20260503044004 | 40 | 0 | 0.0 | 0.0 | 0.00 | 0.00 | 0.00 | 80 | 1013.0 |
| 20260503043504 | 40 | 0 | 0.0 | 0.0 | 0.00 | 0.00 | 0.00 | 80 | 1012.9 |
| 20260503043004 | 40 | 0 | 0.0 | 0.0 | 0.00 | 0.00 | 0.00 | 80 | 1013.0 |
| 20260503042504 | 40 | 0 | 0.0 | 0.0 | 0.00 | 0.00 | 0.00 | 81 | 1012.8 |
| 20260503042004 | 40 | 0 | 0.0 | 0.0 | 0.00 | 0.00 | 0.00 | 81 | 1013.0 |
| 20260503041504 | 40 | 0 | 0.0 | 0.0 | 0.00 | 0.00 | 0.00 | 81 | 1013.1 |
| 20260503041004 | 40 | 0 | 0.0 | 0.0 | 0.00 | 0.00 | 0.00 | 81 | 1012.8 |
| 20260503040504 | 40 | 0 | 0.0 | 0.0 | 0.00 | 0.00 | 0.00 | 81 | 1012.8 |
| 20260503040005 | 40 | 0 | 0.0 | 0.0 | 0.00 | 0.00 | 0.00 | 81 | 1012.9 |
| 20260503035504 | 40 | 0 | 0.0 | 0.0 | 0.00 | 0.00 | 0.00 | 81 | 1013.0 |